Flag for Canada Weather past 2 weeks in Rothesay, New Brunswick, Canada

Now
16 °F

Clear.


Feels Like: 16 °F
Forecast: 20 / 38 °F
Wind: 2 mph from North

Location: Saint John

Current Time: Mar 30, 2015 at 4:41:36 AM

Latest Report: Mar 30, 2015 at 4:00 AM


Visibility: 15 mi

Pressure: 30.02 "Hg

Humidity: 93%

Dew point: 14 °F

Location of RothesayLocation

Historic Weather in Rothesay — Graph

°F

Rothesay temperature yesterday

Maximum temperature yesterday: 36 °F (at 2:00 PM)
Minimum temperature yesterday: 19 °F (at 7:00 AM)
Average temperature yesterday: 27 °F

Past Weeks' High & Low Weather Summary

 TemperatureHumidityPressure
High41 °F (Mar 25, 2:00 PM)100% (Mar 22, 12:00 AM)30.35 "Hg (Mar 22, 12:00 AM)
Low-2 °F (Mar 17, 5:00 AM)21% (Mar 29, 2:00 PM)29.21 "Hg (Mar 18, 4:00 AM)
Average23 °F71%29.83 "Hg
* Reported Mar 15 3:00 AM — Mar 30 3:00 AM, Rothesay, Weather by CustomWeather, © 2015

Note: Actual official high and low records may vary slightly from our data, if they occured in-between our weather recording intervals... More about our weather records

Advertising

Rothesay weather history for previous 24 hours

 ConditionsComfort  
Time TempWeatherWind HumidityBarometerVisibility
3:00 AM
Mon, Mar 30
18 °FClear.5 mph93%30.02 "Hg15 mi
2:00 AM21 °FClear.5 mph93%30.03 "Hg15 mi
1:00 AM16 °FClear.2 mph93%30.05 "Hg15 mi
12:00 AM19 °FClear.2 mph86%30.05 "Hg15 mi
11:00 PM
Sun, Mar 29
21 °FPassing clouds.2 mph80%30.06 "Hg15 mi
10:00 PM25 °FPassing clouds.3 mph80%30.06 "Hg15 mi
9:00 PM25 °FPassing clouds.5 mph74%30.06 "Hg15 mi
8:00 PM28 °FPassing clouds.10 mph64%30.04 "Hg15 mi
7:00 PM32 °FSunny.14 mph47%30.03 "Hg15 mi
6:00 PM34 °FSunny.12 mph44%30.02 "Hg15 mi
5:00 PM34 °FSunny.14 mph44%30.02 "Hg15 mi
4:00 PM36 °FPassing clouds.8 mph30%30.02 "Hg15 mi
3:00 PM36 °FPassing clouds.5 mph23%30.02 "Hg15 mi
2:00 PM36 °FPassing clouds.12 mph21%30.03 "Hg15 mi
1:00 PM32 °FPassing clouds.6 mph25%30.04 "Hg15 mi
12:00 PM30 °FPassing clouds.10 mph34%30.06 "Hg15 mi
11:00 AM28 °FScattered clouds.7 mph37%30.06 "Hg15 mi
10:00 AM27 °FBroken clouds.12 mph36%30.04 "Hg15 mi
9:00 AM23 °FPartly sunny.14 mph39%30.02 "Hg15 mi
8:00 AM19 °FPassing clouds.7 mph45%30.00 "Hg15 mi
7:00 AM19 °FPassing clouds.9 mph49%29.96 "Hg15 mi
6:00 AM21 °FPassing clouds.10 mph54%29.93 "Hg15 mi
5:00 AM21 °FPassing clouds.5 mph74%29.91 "Hg15 mi
4:00 AM25 °FMostly cloudy.6 mph63%29.89 "Hg15 mi
Weather by CustomWeather, © 2015

See weather overviewHow to use our weather pages